DW7126 Lourinha PT current weather conditions

sailwx.info

Wind from 018 at 8 knots gusting 13

Last reported at 2014-Aug-23 08:55 UTC.
Time now 2014-Aug-23 09:31 UTC

Location: N 39°14' W 009°18'.
View on Google Maps.

See reports from other nearby stations

  
Tides and Currents Weather Stations Pressure Air Temp Water Temp Dewpoint Dewpoint Depression Visibility Wind Speed Wind Dir Waves Ship Positions
date/time (UTC)wind fromknots sea level pressurealtimeterstation pressurevisibilityair tempwater tempwave heightnotes
2014-Aug-23 08:55 018 8 gusting 13
2014-Aug-23 08:50 351 6 gusting 10
2014-Aug-23 08:45 016 6 gusting 10
2014-Aug-23 08:40 360 5 gusting 13
2014-Aug-23 08:35 016 6 gusting 13
2014-Aug-23 08:30 013 9 gusting 13
2014-Aug-23 08:25 024 7 gusting 13
2014-Aug-23 08:20 032 7 gusting 10
2014-Aug-23 08:15 040 7 gusting 10
2014-Aug-23 08:10 019 5 gusting 11
2014-Aug-23 08:05 028 7 gusting 11
2014-Aug-23 08:00 024 7 gusting 11
2014-Aug-23 07:55 005 4 gusting 7
2014-Aug-23 07:50 355 3 gusting 6
2014-Aug-23 07:45 028 4 gusting 6
2014-Aug-23 07:40 005 4 gusting 7
2014-Aug-23 07:35 339 5 gusting 7
2014-Aug-23 07:30 348 3 gusting 5
2014-Aug-23 07:25 022 2 gusting 4
2014-Aug-23 07:20 030 0 gusting 2
2014-Aug-23 07:15 030
2014-Aug-23 07:10 030 0 gusting 2
2014-Aug-23 07:05 030 0 gusting 1
2014-Aug-23 07:00 030
2014-Aug-23 06:55 030
2014-Aug-23 06:50 030
2014-Aug-23 06:45 030
2014-Aug-23 06:40 030
2014-Aug-23 06:35 031
2014-Aug-23 06:30 031
2014-Aug-23 06:25 031
2014-Aug-23 06:20 031
2014-Aug-23 06:15 031
2014-Aug-23 06:10 031
2014-Aug-23 06:05 031
2014-Aug-23 06:00 028
2014-Aug-23 05:55 028
2014-Aug-23 05:50 028
2014-Aug-23 05:45 028
2014-Aug-23 05:40 028 1 gusting 2
2014-Aug-23 05:35 028 0 gusting 2
2014-Aug-23 05:30 028 0 gusting 1
2014-Aug-23 05:25 028
2014-Aug-23 05:20 028
2014-Aug-23 05:15 028 1 gusting 5
2014-Aug-23 05:10 028 2 gusting 5
2014-Aug-23 05:05 034 2 gusting 3
2014-Aug-23 05:00 033 0 gusting 5
2014-Aug-23 04:55 030 3 gusting 6
2014-Aug-23 04:50 014 2 gusting 6
2014-Aug-23 04:45 005 2 gusting 5
2014-Aug-23 04:40 009 1 gusting 3
2014-Aug-23 04:35 018 1 gusting 3
2014-Aug-23 04:30 024
2014-Aug-23 04:25 025 0 gusting 2
2014-Aug-23 04:20 024 0 gusting 2
2014-Aug-23 04:15 024 0 gusting 2
2014-Aug-23 04:10 024
2014-Aug-23 04:05 025
2014-Aug-23 04:00 025
2014-Aug-23 03:55 025 0 gusting 4
2014-Aug-23 03:50 026 1 gusting 4
2014-Aug-23 03:45 028 1 gusting 4
2014-Aug-23 03:40 030 0 gusting 4
2014-Aug-23 03:35 027 1 gusting 4
2014-Aug-23 03:30 025 2 gusting 5
2014-Aug-23 03:25 018 2 gusting 5
2014-Aug-23 03:20 012 2 gusting 5
2014-Aug-23 03:15 019 3 gusting 5
2014-Aug-23 03:10 021 3 gusting 5
2014-Aug-23 03:05 017 2 gusting 5
2014-Aug-23 03:00 021 3 gusting 6
2014-Aug-23 02:55 010 4 gusting 6
2014-Aug-23 02:50 017 3 gusting 5
2014-Aug-23 02:45 005 2 gusting 4
2014-Aug-23 02:40 020 3 gusting 6
2014-Aug-23 02:35 024 3 gusting 6
2014-Aug-23 02:30 020 4 gusting 6
2014-Aug-23 02:25 015 3 gusting 6
2014-Aug-23 02:20 019 3 gusting 6
2014-Aug-23 02:15 360 4 gusting 6
2014-Aug-23 02:10 013 3 gusting 7
2014-Aug-23 02:05 021 4 gusting 7
2014-Aug-23 02:00 020 3 gusting 6
2014-Aug-23 01:55 015 3 gusting 6
2014-Aug-23 01:50 028 3 gusting 5
2014-Aug-23 01:45 027 3 gusting 6
2014-Aug-23 01:40 022 4 gusting 6
2014-Aug-23 01:35 350 3 gusting 6
2014-Aug-23 01:30 355 3 gusting 6
2014-Aug-23 01:25 350 2 gusting 6
2014-Aug-23 01:20 360 3 gusting 5
2014-Aug-23 01:15 351 2 gusting 5
2014-Aug-23 01:10 350 1 gusting 3
2014-Aug-23 01:05 347 2 gusting 4
2014-Aug-23 01:00 348 1 gusting 4
2014-Aug-23 00:55 348 1 gusting 4
2014-Aug-23 00:50 348 3 gusting 4
2014-Aug-23 00:45 350 1 gusting 5
2014-Aug-23 00:40 350 2 gusting 5
2014-Aug-23 00:35 355 2 gusting 4
2014-Aug-23 00:30 355 2 gusting 4
2014-Aug-23 00:25 360 2 gusting 4
2014-Aug-23 00:20 005 0 gusting 4
2014-Aug-23 00:15 005 1 gusting 4
2014-Aug-23 00:10 005 0 gusting 2
2014-Aug-23 00:05 005 0 gusting 2
2014-Aug-23 00:00 005
2014-Aug-22 23:55 005 0 gusting 2
2014-Aug-22 23:50 005 0 gusting 3
2014-Aug-22 23:45 005
2014-Aug-22 23:40 005 0 gusting 3
2014-Aug-22 23:35 005 2 gusting 3
2014-Aug-22 23:30 005 1 gusting 4
2014-Aug-22 23:25 005 2 gusting 4
2014-Aug-22 23:20 015 1 gusting 4
2014-Aug-22 23:15 016 0 gusting 4
2014-Aug-22 23:10 016 2 gusting 6
2014-Aug-22 23:05 005 2 gusting 5
2014-Aug-22 23:00 360 3 gusting 5
2014-Aug-22 22:55 011 2 gusting 5
2014-Aug-22 22:50 005 2 gusting 6
2014-Aug-22 22:45 350 1 gusting 6
2014-Aug-22 22:40 024 1 gusting 3
2014-Aug-22 22:35 024 1 gusting 4
2014-Aug-22 22:30 023 2 gusting 4
2014-Aug-22 22:25 024 2 gusting 4
2014-Aug-22 22:20 017 1 gusting 5
2014-Aug-22 22:15 015 1 gusting 5
2014-Aug-22 22:10 017 0 gusting 5
2014-Aug-22 22:05 024 1 gusting 4
2014-Aug-22 22:00 014 3 gusting 4
2014-Aug-22 21:55 029 2 gusting 4
2014-Aug-22 21:50 037 1 gusting 5
2014-Aug-22 21:45 038 2 gusting 6
2014-Aug-22 21:40 016 1 gusting 6
2014-Aug-22 21:35 024 2 gusting 6
2014-Aug-22 21:30 027 3 gusting 6
2014-Aug-22 21:25 024 4 gusting 7
2014-Aug-22 21:20 042 3 gusting 7
2014-Aug-22 21:15 013 4 gusting 6
2014-Aug-22 21:10 015 3 gusting 7
2014-Aug-22 21:05 013 4 gusting 7
2014-Aug-22 21:00 024 4 gusting 7
2014-Aug-22 20:55 005 4 gusting 9
2014-Aug-22 20:50 028 5 gusting 9
2014-Aug-22 20:45 027 6 gusting 9
2014-Aug-22 20:40 024 5 gusting 9
2014-Aug-22 20:35 005 6 gusting 9
2014-Aug-22 20:30 042 5 gusting 8
2014-Aug-22 20:25 005 6 gusting 8
2014-Aug-22 20:20 019 5 gusting 8
2014-Aug-22 20:15 026 4 gusting 9
2014-Aug-22 20:10 015 6 gusting 9
2014-Aug-22 20:05 005 6 gusting 9
2014-Aug-22 20:00 015 4 gusting 8
2014-Aug-22 19:55 005 5 gusting 8
2014-Aug-22 19:50 030 4 gusting 9
2014-Aug-22 19:45 005 3 gusting 9
2014-Aug-22 19:40 360 5 gusting 10
2014-Aug-22 19:35 026 6 gusting 9
2014-Aug-22 19:30 005 5 gusting 9
2014-Aug-22 19:25 015 3 gusting 9
2014-Aug-22 19:20 010 6 gusting 9
2014-Aug-22 19:15 360 6 gusting 10
2014-Aug-22 19:10 355 6 gusting 10
2014-Aug-22 19:05 347 6 gusting 10
2014-Aug-22 19:00 355 6 gusting 12
2014-Aug-22 18:55 342 8 gusting 12
2014-Aug-22 18:50 013 6 gusting 11
2014-Aug-22 18:45 019 6 gusting 10
2014-Aug-22 18:40 355 5 gusting 9
2014-Aug-22 18:35 018 5 gusting 9
2014-Aug-22 18:30 021 5 gusting 9
2014-Aug-22 18:25 017 3 gusting 11
2014-Aug-22 18:20 351 6 gusting 11
2014-Aug-22 18:15 339 5 gusting 10
2014-Aug-22 18:10 340 6 gusting 13
2014-Aug-22 18:05 346 6 gusting 13
2014-Aug-22 18:00 334 7 gusting 12
2014-Aug-22 17:55 346 6 gusting 12
2014-Aug-22 17:50 331 8 gusting 13
2014-Aug-22 17:45 319 9 gusting 13
2014-Aug-22 17:40 321 7 gusting 12
2014-Aug-22 17:35 314 8 gusting 12
2014-Aug-22 17:30 296 6 gusting 13
2014-Aug-22 17:25 309 9 gusting 13
2014-Aug-22 17:20 327 7 gusting 13
2014-Aug-22 17:15 292 8 gusting 13
2014-Aug-22 17:10 321 8 gusting 13
2014-Aug-22 17:05 303 9 gusting 13
2014-Aug-22 17:00 348 6 gusting 12
2014-Aug-22 16:55 321 6 gusting 12
2014-Aug-22 16:50 325 8 gusting 13
2014-Aug-22 16:45 312 9 gusting 13
2014-Aug-22 16:40 315 9 gusting 13
2014-Aug-22 16:35 327 9 gusting 13
2014-Aug-22 16:30 323 9 gusting 15
2014-Aug-22 16:25 306 7 gusting 15
2014-Aug-22 16:20 307 9 gusting 13
2014-Aug-22 16:15 337 8 gusting 13
2014-Aug-22 16:10 289 10 gusting 13
2014-Aug-22 16:05 311 9 gusting 13
2014-Aug-22 16:00 331 9 gusting 14
2014-Aug-22 15:55 331 11 gusting 14
2014-Aug-22 15:50 295 7 gusting 13
2014-Aug-22 15:45 317 7 gusting 13
2014-Aug-22 15:40 296 8 gusting 14
2014-Aug-22 15:35 325 9 gusting 14
2014-Aug-22 15:30 330 10 gusting 14
2014-Aug-22 15:25 339 8 gusting 14
2014-Aug-22 15:20 278 7 gusting 14
2014-Aug-22 15:15 279 8 gusting 13
2014-Aug-22 15:10 327 8 gusting 13
2014-Aug-22 15:05 306 8 gusting 13
2014-Aug-22 15:00 313 8 gusting 13
2014-Aug-22 14:55 329 10 gusting 13
2014-Aug-22 14:50 293 8 gusting 13
2014-Aug-22 14:45 307 6 gusting 13
2014-Aug-22 14:40 321 8 gusting 13
2014-Aug-22 14:35 279 8 gusting 13
2014-Aug-22 14:30 344 6 gusting 13
2014-Aug-22 14:25 323 10 gusting 14
2014-Aug-22 14:20 341 8 gusting 14
2014-Aug-22 14:15 360 10 gusting 14
2014-Aug-22 14:10 350 9 gusting 13
2014-Aug-22 14:05 300 8 gusting 13
2014-Aug-22 14:00 360 7 gusting 13
2014-Aug-22 13:55 323 9 gusting 13
2014-Aug-22 13:50 304 6 gusting 12
2014-Aug-22 13:45 285 7 gusting 13
2014-Aug-22 13:40 319 9 gusting 14
2014-Aug-22 13:35 271 7 gusting 13
2014-Aug-22 13:30 315 8 gusting 13
2014-Aug-22 13:25 317 7 gusting 12
2014-Aug-22 13:20 303 8 gusting 13
2014-Aug-22 12:15 330 7 gusting 12
2014-Aug-22 12:10 324 8 gusting 13
2014-Aug-22 12:05 305 7 gusting 12
2014-Aug-22 12:00 322 8 gusting 12
2014-Aug-22 11:55 300 7 gusting 12
2014-Aug-22 11:50 302 8 gusting 12
2014-Aug-22 11:45 302 8 gusting 13
2014-Aug-22 11:40 281 7 gusting 13
2014-Aug-22 11:35 331 6 gusting 13
2014-Aug-22 11:30 277 8 gusting 13
2014-Aug-22 11:25 326 7 gusting 12
2014-Aug-22 11:20 298 6 gusting 12
2014-Aug-22 11:15 314 7 gusting 12
2014-Aug-22 11:10 307 6 gusting 13
2014-Aug-22 11:05 337 6 gusting 13
2014-Aug-22 11:00 292 6 gusting 13
2014-Aug-22 10:55 310 8 gusting 13
2014-Aug-22 10:50 303 8 gusting 12
2014-Aug-22 10:45 308 7 gusting 13
2014-Aug-22 10:40 325 7 gusting 13
2014-Aug-22 10:35 336 5 gusting 12
2014-Aug-22 10:30 319 7 gusting 12
2014-Aug-22 10:25 283 6 gusting 12
2014-Aug-22 10:20 304 8 gusting 12
2014-Aug-22 10:15 314 6 gusting 11
2014-Aug-22 10:10 298 7 gusting 11
2014-Aug-22 10:05 323 6 gusting 11
2014-Aug-22 10:00 332 6 gusting 13
2014-Aug-22 09:55 333 9 gusting 13
2014-Aug-22 09:50 320 6 gusting 13
2014-Aug-22 09:45 344 8 gusting 12
2014-Aug-22 09:40 325 6 gusting 11
2014-Aug-22 09:35 318 6 gusting 12
2014-Aug-22 09:30 339 6 gusting 13
2014-Aug-22 09:25 309 9 gusting 13
2014-Aug-22 09:20 336 6 gusting 12
2014-Aug-22 09:15 307 7 gusting 13
2014-Aug-22 09:10 339 8 gusting 13
2014-Aug-22 09:05 331 7 gusting 11
2014-Aug-22 09:00 355 6 gusting 10
2014-Aug-22 08:55 360 7 gusting 10
2014-Aug-22 08:50 306 6 gusting 10
2014-Aug-22 08:45 331 7 gusting 10
2014-Aug-22 08:40 342 6 gusting 10
2014-Aug-22 08:35 277 6 gusting 8
2014-Aug-22 08:30 302 3 gusting 7
2014-Aug-22 08:25 333 4 gusting 8
2014-Aug-22 08:20 342 5 gusting 9
2014-Aug-22 08:15 329 5 gusting 9
2014-Aug-22 08:10 355 4 gusting 9
2014-Aug-22 08:05 355 5 gusting 9
2014-Aug-22 08:00 355 4 gusting 7
2014-Aug-22 07:55 321 4 gusting 7
2014-Aug-22 07:50 335 3 gusting 6
2014-Aug-22 07:45 323 4 gusting 6
2014-Aug-22 07:40 331 4 gusting 6
2014-Aug-22 07:35 328 4 gusting 6
2014-Aug-22 07:30 326 2 gusting 4
2014-Aug-22 07:25 333 2 gusting 5
2014-Aug-22 07:20 323 2 gusting 5
2014-Aug-22 07:16 306 1 gusting 4
2014-Aug-22 01:05 306 2 gusting 4
2014-Aug-22 01:00 310 1 gusting 5
2014-Aug-22 00:55 296 3 gusting 5
2014-Aug-22 00:50 294 3 gusting 5
2014-Aug-22 00:45 302 3 gusting 5
2014-Aug-22 00:40 310 3 gusting 5
2014-Aug-22 00:35 304 1 gusting 4
2014-Aug-22 00:30 306 1 gusting 4
2014-Aug-22 00:25 308 2 gusting 4
2014-Aug-22 00:20 314 1 gusting 4
2014-Aug-22 00:15 302 1 gusting 4
2014-Aug-22 00:10 298 2 gusting 4
2014-Aug-22 00:05 291 2 gusting 4
2014-Aug-22 00:00 291 1 gusting 3
2014-Aug-21 23:55 291 0 gusting 3
2014-Aug-21 23:50 290 0 gusting 3
2014-Aug-21 23:45 296 1 gusting 3
2014-Aug-21 23:40 301 1 gusting 3
2014-Aug-21 23:35 301 1 gusting 3
2014-Aug-21 23:30 301 1 gusting 3
2014-Aug-21 23:25 304 0 gusting 3
2014-Aug-21 23:20 300 1 gusting 3
2014-Aug-21 23:15 298 0 gusting 3
2014-Aug-21 23:10 305 1 gusting 5
2014-Aug-21 23:05 307 1 gusting 5
2014-Aug-21 23:00 301 3 gusting 5
2014-Aug-21 22:55 298 1 gusting 5
2014-Aug-21 22:50 286 1 gusting 4
2014-Aug-21 22:45 286 1 gusting 4
2014-Aug-21 22:40 298 0 gusting 4
2014-Aug-21 22:35 300 0 gusting 3
2014-Aug-21 22:30 300 0 gusting 3
2014-Aug-21 22:25 302
2014-Aug-21 22:20 302 0 gusting 3
2014-Aug-21 22:15 302 0 gusting 3
2014-Aug-21 22:10 301 0 gusting 3
2014-Aug-21 22:05 304 1 gusting 3
2014-Aug-21 22:00 304 1 gusting 4
2014-Aug-21 21:55 305 1 gusting 4
2014-Aug-21 21:50 307 0 gusting 4
2014-Aug-21 21:45 301 1 gusting 4
2014-Aug-21 21:40 311 3 gusting 6
2014-Aug-21 21:35 298 3 gusting 6
2014-Aug-21 21:30 296 2 gusting 6
2014-Aug-21 21:25 291 4 gusting 6
2014-Aug-21 21:20 284 3 gusting 6
2014-Aug-21 21:15 296 3 gusting 6
2014-Aug-21 21:10 302 4 gusting 6
2014-Aug-21 21:05 294 3 gusting 7
2014-Aug-21 21:00 299 4 gusting 6
2014-Aug-21 20:55 302 3 gusting 5
2014-Aug-21 20:50 292 0 gusting 6
2014-Aug-21 20:45 297 3 gusting 6
2014-Aug-21 20:40 299 4 gusting 5
2014-Aug-21 20:35 292 3 gusting 5
2014-Aug-21 20:30 297 2 gusting 5
2014-Aug-21 20:25 306 3 gusting 5
2014-Aug-21 20:20 302 3 gusting 6
2014-Aug-21 20:15 297 3 gusting 5
2014-Aug-21 20:10 286 3 gusting 5
2014-Aug-21 20:05 289 1 gusting 4
2014-Aug-21 20:00 296 2 gusting 5
2014-Aug-21 19:55 300 2 gusting 6
2014-Aug-21 19:50 284 2 gusting 6
2014-Aug-21 19:45 291 3 gusting 5
2014-Aug-21 19:40 298 2 gusting 5
2014-Aug-21 19:35 289 0 gusting 4
2014-Aug-21 19:30 297 1 gusting 5
2014-Aug-21 19:25 295
2014-Aug-21 19:20 294 1 gusting 6
2014-Aug-21 19:15 290 4 gusting 6
2014-Aug-21 19:10 295 4 gusting 6
2014-Aug-21 19:05 303 4 gusting 7
2014-Aug-21 19:00 290 3 gusting 8
2014-Aug-21 18:55 314 5 gusting 8
2014-Aug-21 18:50 294 4 gusting 7
2014-Aug-21 18:45 298 4 gusting 6
2014-Aug-21 18:40 294 3 gusting 7
2014-Aug-21 16:45 263 5 gusting 13
2014-Aug-21 16:40 300 6 gusting 12
2014-Aug-21 16:35 294 7 gusting 11
2014-Aug-21 16:30 303 6 gusting 10
2014-Aug-21 16:25 326 7 gusting 12
2014-Aug-21 16:20 289 6 gusting 12
2014-Aug-21 16:15 298 6 gusting 10
2014-Aug-21 16:10 315 7 gusting 10
2014-Aug-21 16:05 322 6 gusting 9
2014-Aug-21 16:00 286 6 gusting 10
2014-Aug-21 15:55 299 6 gusting 11
2014-Aug-21 15:50 341 7 gusting 11
2014-Aug-21 15:45 286 7 gusting 10
2014-Aug-21 15:40 298 6 gusting 9
2014-Aug-21 15:35 273 4 gusting 9
2014-Aug-21 15:30 250 6 gusting 9
2014-Aug-21 15:25 292 4 gusting 9
2014-Aug-21 15:20 306 6 gusting 9
2014-Aug-21 15:15 296 6 gusting 10
2014-Aug-21 15:10 281 6 gusting 11
2014-Aug-21 15:05 326 6 gusting 12
2014-Aug-21 15:00 334 6 gusting 12
2014-Aug-21 14:55 304 6 gusting 10
2014-Aug-21 14:50 315 6 gusting 11
2014-Aug-21 14:45 289 6 gusting 11
2014-Aug-21 14:40 276 5 gusting 9
2014-Aug-21 14:35 315 6 gusting 11
2014-Aug-21 14:30 317 7 gusting 11
2014-Aug-21 14:25 298 5 gusting 12
2014-Aug-21 14:20 288 7 gusting 13
2014-Aug-21 14:15 281 6 gusting 11
2014-Aug-21 14:10 315 7 gusting 11
2014-Aug-21 14:05 298 6 gusting 10
2014-Aug-21 14:00 269 6 gusting 9
2014-Aug-21 13:55 293 4 gusting 10
2014-Aug-21 13:50 276 6 gusting 10
2014-Aug-21 13:45 286 6 gusting 10
2014-Aug-21 13:40 277 6 gusting 11
2014-Aug-21 13:35 283 7 gusting 11
2014-Aug-21 13:30 284 6 gusting 10
2014-Aug-21 13:25 271 7 gusting 10
2014-Aug-21 13:20 267 7 gusting 10
2014-Aug-21 13:15 278 6 gusting 11
2014-Aug-21 13:10 287 6 gusting 11
2014-Aug-21 13:05 329 8 gusting 11
2014-Aug-21 13:00 300 7 gusting 10
2014-Aug-21 12:55 302 6 gusting 10
2014-Aug-21 12:50 329 6 gusting 10
2014-Aug-21 12:45 333 6 gusting 11
2014-Aug-21 12:40 304 6 gusting 11
2014-Aug-21 12:35 328 6 gusting 9
2014-Aug-21 12:30 329 6 gusting 10
2014-Aug-21 12:25 360 5 gusting 10
2014-Aug-21 12:20 261 6 gusting 9
2014-Aug-21 12:15 279 6 gusting 10
2014-Aug-21 12:10 267 6 gusting 12
2014-Aug-21 12:05 298 6 gusting 12
2014-Aug-21 12:00 286 8 gusting 11
2014-Aug-21 11:55 270 5 gusting 9
2014-Aug-21 11:50 317 6 gusting 9
2014-Aug-21 11:45 269 5 gusting 10
2014-Aug-21 11:40 268 5 gusting 10
2014-Aug-21 11:35 315 6 gusting 9
2014-Aug-21 11:30 271 6 gusting 9
2014-Aug-21 11:25 350 5 gusting 9
2014-Aug-21 11:20 323 6 gusting 9
2014-Aug-21 11:15 337 3 gusting 7
2014-Aug-21 11:10 315 6 gusting 9
2014-Aug-21 11:05 309 6 gusting 9
2014-Aug-21 11:00 306 4 gusting 7
2014-Aug-21 10:55 312 5 gusting 8
2014-Aug-21 10:50 254 3 gusting 9
2014-Aug-21 10:45 267 4 gusting 8
2014-Aug-21 10:40 271 4 gusting 8
2014-Aug-21 10:35 266 4 gusting 8
2014-Aug-21 10:30 325 5 gusting 8
2014-Aug-21 10:25 300 5 gusting 7
2014-Aug-21 10:20 340 5 gusting 7
2014-Aug-21 10:15 268 5 gusting 8
2014-Aug-21 10:10 360 4 gusting 8
2014-Aug-21 10:05 316 4 gusting 8
2014-Aug-21 10:00 331 6 gusting 7
2014-Aug-21 09:55 326 5 gusting 7
2014-Aug-21 09:50 296 5 gusting 7
2014-Aug-21 09:45 296 4 gusting 6
2014-Aug-21 09:40 277 3 gusting 7
2014-Aug-21 09:35 317 4 gusting 7
2014-Aug-21 09:30 306 4 gusting 7
2014-Aug-21 09:25 277 4 gusting 7
2014-Aug-21 09:20 317 2 gusting 7
2014-Aug-21 09:15 336 3 gusting 6
2014-Aug-21 09:10 284 2 gusting 6
2014-Aug-21 09:05 290 3 gusting 7 70.0
2014-Aug-21 09:00 271 5 gusting 7 70.0